User: anonymous   Login
Location: Morlupo
(42.1333°N, 12.5000°E)
Time: 01:18:25
(UTC+00:00)
Language:

Cosmos 1844 Rocket - Orbit

View from above orbital plane
View from above orbital plane
View from above satellite
View from above satellite

Ground track
Ground track

The orbit data is extracted from the following two-line orbital elements,

1 17974U 87041B   20331.57091184 -.00000077 +00000-0 -14337-4 0  9990
2 17974 071.0064 138.4893 0016418 271.8313 152.5173 14.17271707734778
Epoch (UTC): 26 November 2020 13:42:06
Eccentricity: 0.0016418
inclination: 71.0064°
perigee height: 823 km
apogee height: 846 km
right ascension of ascending node: 138.4893°
argument of perigee: 271.8313°
revolutions per day: 14.17271707
mean anomaly at epoch: 152.5173°
orbit number at epoch: 73477

The dashed part of the orbit path shows where the satellite is in the earth's shadow,  

DLR